CAPE
0 0 0 0 0 0 0 0 0 0 0 0 0 0 0 0 0 0 0 0 0 0 0 0 0 0 0 0 0 0 0 0 0 0 0 0 0 0 0 0 0 0 0 0
1 0 0 0 0 0 0 0 0 0 0 0 0 0 0 0 0 0 0 0 0 0 0 0 0 0 0 0 0 0 0 0 0 0 0 0 0 0 0 0 0 0 0 0
0 0 0 0 0 0 0 0 0 0 0 0 0 0 0 0 0 0 0 0 0 0 0 0 0 0 0 0 0 0 0 0 0 0 0 0 0 0 0 0 0 0 0 0
2 0 0 1 0 0 0 0 0 0 0 0 0 0 0 0 0 0 0 0 0 0 0 0 0 0 0 0 0 0 0 0 0 0 0 0 0 0 0 0 0 0 0 0
0 0 1 10 0 0 0 0 0 0 0 0 0 0 0 0 0 0 0 0 0 0 0 0 0 0 0 0 0 0 0 0 0 0 0 0 0 0 0 0 0 0 0 0
0 0 0 0 0 0 0 0 0 2 6 5 0 0 0 0 0 0 0 0 0 0 0 0 0 0 0 0 0 0 0 0 0 0 0 0 0 0 0 0 0 0 0 0
0 0 11 0 4 0 2 1 0 6 10 0 0 2 0 0 0 0 0 0 0 0 0 0 0 0 0 0 0 0 0 0 0 0 0 0 0 0 0 0 0 0 0 0
1 3 1 1 10 1 9 6 2 0 0 0 0 1 0 0 0 0 0 0 0 0 0 0 0 0 0 0 0 0 0 0 0 4 0 0 0 0 0 0 0 0 0 0
1 1 0 0 18 23 17 39 0 0 0 0 0 0 0 0 0 0 0 0 0 0 0 0 0 0 0 0 0 0 0 0 0 17 14 1 0 0 0 0 0 0 0 0
0 0 0 0 6 12 12 0 6 16 7 0 0 0 0 0 0 0 0 0 0 0 0 0 0 0 0 0 0 0 0 0 0 0 14 37 44 10 0 0 0 0 0 0
0 0 0 0 2 3 12 20 21 12 9 0 0 0 0 0 0 0 0 0 0 0 0 0 0 0 0 0 0 0 0 0 0 0 0 0 2 68 78 19 0 0 0 0
0 0 0 0 0 0 2 0 0 1 0 0 0 0 0 0 0 0 0 0 0 0 0 0 0 0 0 0 0 0 0 0 0 0 0 0 0 0 7 51 59 45 34 2
4 1 0 0 0 0 1 0 3 2 0 0 0 0 0 0 0 0 0 0 0 0 0 0 0 0 0 0 0 0 0 0 0 0 0 0 0 0 0 7 10 31 59 33
33 3 0 0 0 0 0 0 0 2 8 0 0 0 3 0 0 0 0 0 0 0 0 0 0 0 0 0 0 0 0 0 0 0 0 0 0 0 0 0 0 11 30 57
67 44 2 0 0 0 0 0 0 17 0 2 0 0 0 0 0 0 0 0 0 0 0 0 0 0 0 0 0 0 0 0 0 0 0 0 0 0 0 0 0 0 0 35
65 45 0 0 0 0 0 0 0 13 2 32 0 0 0 0 0 0 0 0 0 0 0 0 0 0 0 0 0 0 0 0 0 0 0 0 0 0 0 0 0 0 0 0
58 9 0 0 0 0 0 0 0 0 2 2 0 0 0 0 0 0 0 0 0 0 0 0 0 0 0 0 0 0 0 0 0 0 0 0 0 0 0 0 0 0 0 0
0 17 3 1 0 0 0 0 0 0 0 1 0 0 0 0 0 0 0 0 0 0 0 0 0 0 0 0 0 0 0 0 0 0 0 0 0 0 0 0 0 0 0 0
27 4 0 3 0 0 0 0 0 0 0 0 0 0 0 0 0 0 0 0 0 0 0 0 0 0 0 0 0 0 0 0 0 0 0 0 0 0 0 0 0 0 0 0
32 5 0 0 0 0 0 0 0 0 0 0 0 0 0 0 0 0 0 0 0 0 0 0 0 0 0 0 0 0 0 0 0 0 0 0 0 0 0 0 0 0 0 0
30 6 0 0 0 0 0 0 0 0 0 0 0 0 0 0 0 0 0 0 0 0 0 0 0 0 0 0 0 0 0 0 0 0 1 2 0 0 1 0 0 0 0 0
0 0 0 0 0 0 0 0 0 0 0 0 0 0 0 0 0 0 0 0 0 0 0 0 0 0 0 0 0 0 0 0 1 2 2 3 5 3 1 1 1 0 0 0
0 0 0 0 0 1 0 2 0 0 0 0 0 0 0 0 0 0 0 0 0 0 0 0 0 0 0 0 0 0 0 0 2 1 1 2 5 4 1 0 0 1 1 0
0 0 0 0 1 1 0 0 0 0 0 0 0 0 0 0 0 0 0 0 0 0 0 0 0 0 0 0 0 0 0 0 0 0 3 1 1 6 3 1 1 1 1 0
0 0 0 2 1 0 0 0 0 0 0 0 0 0 0 0 0 0 0 0 0 0 0 0 0 0 0 0 0 0 0 0 0 0 3 1 0 0 5 2 1 1 1 1
0 3 0 0 0 0 0 0 0 0 0 0 0 0 0 0 0 0 0 0 0 0 0 0 0 0 0 0 0 0 0 0 0 0 3 0 2 0 1 3 3 0 0 0
CIN
-0 -0 -0 -0 -0 -0 -0 -0 -0 -0 -0 -0 -0 -0 -0 -0 -0 -0 -0 -0 -0 -0 -0 -0 -0 -0 -0 -0 -0 -0 -0 -0 -0 -0 -0 -0 -0 -0 -0 -0 -0 -0 -0 -0
-0 -0 -0 -0 -0 -0 -0 -0 -0 -0 -0 -0 -0 -0 -0 -0 -0 -0 -0 -0 -0 -0 -0 -0 -0 -0 -0 -0 -0 -0 -0 -0 -0 -0 -0 -0 -0 -0 -0 -0 -0 -0 -0 -0
-0 -0 -0 -0 -0 -0 -0 -0 -0 -0 -0 -0 -0 -0 -0 -0 -0 -0 -0 -0 -0 -0 -0 -0 -0 -0 -0 -0 -0 -0 -0 -0 -0 -0 -0 -0 -0 -0 -0 -0 -0 -0 -0 -0
-0 -0 -0 -0 -0 -0 -0 -0 -0 -0 -0 -0 -0 -0 -0 -0 -0 -0 -0 -0 -0 -0 -0 -0 -0 -0 -0 -0 -0 -0 -0 -0 -0 -0 -0 -0 -0 -0 -0 -0 -0 -0 -0 -0
-0 -0 -3 -0 -0 -0 -0 -0 -0 -0 -0 -0 -0 -0 -0 -0 -0 -0 -0 -0 -0 -0 -0 -0 -0 -0 -0 -0 -0 -0 -0 -0 -0 -0 -0 -0 -0 -0 -0 -0 -0 -0 -0 -0
-0 -0 -0 -0 -0 -0 -0 -0 -0 -2 -2 -0 -0 -0 -0 -0 -0 -0 -0 -0 -0 -0 -0 -0 -0 -0 -0 -0 -0 -0 -0 -0 -0 -0 -0 -0 -0 -0 -0 -0 -0 -0 -0 -0
-0 -2 -5 -0 -3 -6 -6 -0 -1 -0 -2 -0 -0 -5 -0 -0 -0 -0 -0 -0 -0 -0 -0 -0 -0 -0 -0 -0 -0 -0 -0 -0 -0 -0 -0 -0 -0 -0 -0 -0 -0 -0 -0 -0
-1 -0 -0 -1 -7 -0 -4 -2 -3 -0 -0 -0 -0 -0 -0 -0 -0 -0 -0 -0 -0 -0 -0 -0 -0 -0 -0 -0 -0 -0 -0 -0 -0 -315 -0 -0 -0 -0 -0 -0 -0 -0 -0 -0
-1 -1 -0 -0 -3 -5 -1 -1 -0 -0 -0 -0 -0 -0 -0 -0 -0 -0 -0 -0 -0 -0 -0 -0 -0 -0 -0 -0 -0 -0 -0 -0 -0 -250 -232 -43 -0 -0 -0 -0 -0 -0 -0 -0
-0 -0 -0 -0 -6 -2 -3 -0 -0 -5 -2 -3 -0 -0 -0 -0 -0 -0 -0 -0 -0 -0 -0 -0 -0 -0 -0 -0 -0 -0 -0 -0 -0 -12 -259 -181 -207 -295 -0 -0 -0 -0 -0 -0
-0 -0 -0 -0 -1 -1 -2 -5 -9 -11 -15 -1 -0 -0 -0 -0 -0 -0 -0 -0 -0 -0 -0 -0 -0 -0 -0 -0 -0 -0 -0 -0 -0 -0 -0 -0 -75 -191 -196 -279 -0 -0 -0 -0
-0 -0 -0 -0 -0 -0 -70 -0 -22 -2 -0 -0 -0 -0 -0 -0 -0 -0 -0 -0 -0 -0 -0 -0 -0 -0 -0 -0 -0 -0 -0 -0 -0 -0 -0 -0 -0 -0 -99 -195 -214 -238 -317 -89
-14 -2 -1 -0 -0 -0 -5 -0 -14 -4 -0 -0 -0 -0 -0 -0 -0 -0 -0 -0 -0 -0 -0 -0 -0 -0 -0 -0 -0 -0 -0 -0 -0 -0 -0 -0 -0 -0 -0 -186 -197 -191 -233 -269
-19 -61 -3 -0 -0 -0 -0 -0 -0 -3 -2 -0 -0 -0 -4 -0 -0 -0 -0 -0 -0 -0 -0 -0 -0 -0 -0 -0 -0 -0 -0 -0 -0 -0 -0 -0 -0 -0 -0 -0 -0 -195 -177 -190
-2 -2 -31 -0 -0 -0 -0 -0 -0 -16 -0 -1 -0 -0 -0 -0 -0 -0 -0 -0 -0 -0 -0 -0 -0 -0 -0 -0 -0 -0 -0 -0 -0 -0 -0 -0 -0 -0 -0 -0 -0 -0 -0 -214
-5 -24 -6 -1 -0 -0 -0 -0 -0 -56 -62 -25 -0 -0 -0 -0 -0 -0 -0 -0 -0 -0 -0 -0 -0 -0 -0 -0 -0 -0 -0 -0 -0 -0 -0 -0 -0 -0 -0 -0 -0 -0 -0 -0
-1 -8 -0 -0 -0 -10 -0 -0 -0 -0 -67 -20 -0 -0 -0 -0 -47 -0 -0 -0 -0 -0 -0 -0 -0 -0 -0 -0 -0 -0 -0 -0 -0 -0 -0 -0 -0 -0 -0 -0 -0 -0 -0 -0
-0 -31 -47 -15 -0 -0 -0 -0 -0 -0 -0 -102 -22 -0 -0 -0 -0 -0 -0 -0 -0 -0 -0 -0 -0 -0 -0 -0 -0 -0 -0 -0 -0 -0 -0 -0 -0 -0 -0 -0 -0 -0 -0 -0
-28 -41 -0 -22 -0 -0 -0 -0 -0 -0 -0 -0 -0 -0 -0 -0 -0 -0 -0 -0 -0 -0 -0 -0 -0 -0 -0 -0 -0 -0 -0 -0 -0 -0 -0 -0 -0 -0 -0 -0 -0 -0 -0 -0
-4 -30 -0 -0 -0 -0 -0 -0 -0 -0 -0 -0 -0 -0 -0 -0 -0 -0 -0 -0 -0 -0 -0 -0 -0 -0 -0 -0 -0 -0 -0 -0 -0 -0 -0 -0 -0 -0 -0 -0 -0 -0 -0 -0
-14 -10 -0 -0 -0 -0 -0 -0 -0 -0 -0 -0 -0 -0 -0 -0 -0 -0 -0 -0 -0 -0 -0 -0 -0 -0 -0 -0 -0 -0 -0 -0 -0 -0 -0 -0 -0 -0 -0 -0 -0 -0 -0 -0
-0 -0 -1 -0 -0 -0 -0 -0 -0 -0 -0 -0 -0 -0 -0 -0 -0 -0 -0 -0 -0 -0 -0 -0 -0 -0 -0 -0 -0 -0 -0 -0 -0 -0 -0 -0 -0 -0 -0 -0 -0 -0 -0 -0
-0 -0 -0 -0 -0 -0 -0 -0 -0 -0 -0 -0 -0 -0 -0 -0 -0 -0 -0 -0 -0 -0 -0 -0 -0 -0 -0 -0 -0 -0 -0 -0 -0 -0 -0 -0 -0 -0 -0 -0 -0 -0 -0 -0
-0 -0 -0 -0 -0 -0 -0 -0 -0 -0 -0 -0 -0 -0 -0 -0 -0 -0 -0 -0 -0 -0 -0 -0 -0 -0 -0 -0 -0 -0 -0 -0 -0 -0 -0 -0 -0 -0 -0 -0 -0 -0 -0 -0
-0 -0 -0 -0 -0 -0 -0 -0 -0 -0 -0 -0 -0 -0 -0 -0 -0 -0 -0 -0 -0 -0 -0 -0 -0 -0 -0 -0 -0 -0 -0 -0 -0 -0 -0 -0 -0 -0 -0 -0 -0 -0 -0 -0
-0 -0 -0 -0 -0 -0 -0 -0 -0 -0 -0 -0 -0 -0 -0 -0 -0 -0 -0 -0 -0 -0 -0 -0 -0 -0 -0 -0 -0 -0 -0 -0 -0 -0 -0 -0 -0 -0 -0 -0 -0 -0 -0 -0
Wind_Speed
32 37 46 41 36 34 33 38 40 35 30 33 37 44 40 38 37 35 33 31 32 32 32 31 28 19 15 15 15 15 16 14 13 13 14 19 19 22 22 21 20 16 14 13
35 50 43 35 36 37 38 41 42 35 28 31 38 48 44 39 40 37 36 33 31 33 33 37 37 30 21 18 17 18 19 19 18 17 16 16 22 24 24 24 22 18 17 18
44 43 38 37 38 41 44 46 40 38 30 35 39 55 47 39 36 35 32 31 30 32 36 40 37 33 29 25 20 20 21 23 23 21 20 20 21 27 28 27 26 24 23 22
44 46 36 40 42 39 48 40 37 38 37 47 32 58 45 37 40 38 37 35 36 38 40 40 39 36 32 28 25 24 23 23 24 24 25 25 24 25 26 30 29 27 26 24
47 40 43 42 45 35 43 34 36 36 38 41 43 46 50 39 46 41 39 39 38 36 37 39 38 35 34 30 26 25 26 26 25 26 27 27 29 26 26 27 33 29 29 28
45 35 36 42 38 36 33 31 33 35 38 51 52 43 63 53 47 44 40 38 37 37 37 38 38 38 39 37 31 27 26 27 27 28 29 30 31 30 29 30 29 33 31 30
46 45 37 35 38 35 35 35 43 46 48 57 39 41 52 41 39 42 43 42 39 36 37 37 36 36 39 36 33 31 28 29 28 29 31 33 34 33 31 28 30 31 34 34
48 50 46 37 41 39 38 38 43 51 51 51 38 49 51 40 38 40 39 38 36 36 36 35 31 29 30 31 32 30 30 32 32 32 33 32 34 36 35 32 30 31 34 43
49 51 34 37 34 34 38 44 38 41 36 42 42 42 44 41 38 36 37 35 31 24 18 19 20 24 26 27 29 31 33 33 32 32 35 36 36 37 37 35 34 34 30 43
40 47 41 35 33 38 39 32 40 42 52 55 44 45 44 34 31 33 28 19 19 16 17 19 21 24 26 26 26 27 29 32 34 35 36 38 36 37 39 38 38 37 33 30
36 41 39 32 44 41 38 41 38 37 39 47 50 49 38 41 35 23 18 15 17 16 19 21 23 25 27 29 31 31 31 31 32 32 35 39 41 40 40 39 38 38 36 34
40 36 44 45 39 35 34 38 37 42 44 43 43 48 28 27 15 14 16 15 16 18 19 21 23 27 29 31 32 33 35 35 36 36 36 37 40 41 43 43 39 37 37 34
39 40 42 40 34 33 43 38 37 36 34 42 43 44 23 15 13 16 17 17 18 19 21 23 25 28 30 32 34 35 36 38 39 39 39 40 40 40 42 42 41 39 37 36
38 41 42 48 42 34 37 38 35 35 39 40 37 34 26 23 20 21 19 18 21 23 25 26 28 30 31 32 34 36 37 39 41 41 41 42 42 41 40 41 41 39 37 37
39 43 40 41 38 31 36 37 37 39 39 41 40 40 35 36 32 30 27 27 28 28 30 31 34 35 36 37 38 38 39 41 42 43 44 45 44 43 42 41 39 41 40 36
39 40 40 43 36 33 34 34 32 34 37 38 38 42 34 31 30 29 29 28 30 32 32 34 36 37 38 39 40 42 42 43 43 42 45 46 46 46 45 44 44 42 42 40
39 39 31 40 31 33 39 34 29 31 33 33 37 30 27 27 26 26 25 27 26 27 31 34 36 37 38 39 40 42 43 45 45 42 44 46 46 47 46 45 45 44 42 40
38 33 37 35 31 44 33 30 29 28 31 30 33 34 24 28 22 18 18 20 24 29 32 35 35 36 37 38 39 41 41 44 45 45 46 47 47 48 47 46 45 45 41 39
37 32 31 34 34 30 29 25 25 25 28 26 26 27 23 15 15 19 21 23 26 29 31 32 34 36 37 39 41 42 43 44 44 46 48 49 49 50 48 48 48 45 41 39
37 37 34 30 32 35 26 20 21 19 33 29 29 26 21 16 24 25 25 25 26 28 30 33 35 35 38 40 41 43 45 45 46 47 49 49 49 49 49 48 48 45 43 39
37 38 41 31 28 28 23 24 18 23 26 20 18 18 18 20 22 21 22 24 26 29 32 35 35 37 40 41 42 44 45 46 46 47 48 49 48 48 48 48 46 46 44 42
37 31 37 24 30 35 24 19 22 20 17 16 16 17 16 16 18 21 23 26 29 32 35 36 38 39 40 40 42 45 46 47 48 48 48 49 49 48 47 47 46 46 45 42
37 31 28 28 28 18 15 13 15 13 14 17 16 17 18 19 21 23 27 29 31 34 36 37 40 41 39 40 42 46 47 48 49 50 50 50 49 48 47 47 46 45 44 44
25 21 24 20 18 14 13 12 13 13 14 16 17 20 20 22 24 26 28 31 34 36 38 40 42 42 43 43 43 45 47 48 49 51 50 50 50 50 48 46 44 44 43 43
24 24 20 18 13 12 14 15 16 16 17 18 21 22 23 25 27 29 31 33 36 37 39 41 42 44 46 46 46 45 47 48 50 50 49 49 48 49 50 47 46 45 43 43
19 20 21 22 18 19 17 17 19 20 21 23 25 26 26 27 29 32 34 36 37 40 41 42 43 45 46 47 47 47 46 48 50 51 49 49 50 49 49 49 50 44 44 44
Wind_Direction
245 248 248 246 252 264 266 269 271 278 278 282 279 279 282 283 284 284 286 288 291 293 298 299 303 302 287 280 273 266 267 252 255 251 253 268 264 271 273 272 272 266 261 258
247 247 252 257 254 257 264 266 269 279 280 279 281 279 281 281 281 282 285 287 287 292 294 295 294 297 290 276 267 267 266 266 261 262 258 261 273 274 274 276 274 265 261 265
245 260 253 254 253 254 258 261 267 273 282 279 283 277 278 281 282 283 286 289 290 291 293 295 295 293 290 283 273 268 263 264 262 262 270 273 276 278 277 273 271 268 267 267
251 251 250 250 252 251 258 262 268 270 275 273 279 276 276 280 279 281 285 287 289 292 293 292 292 292 290 286 279 271 266 260 261 263 266 264 264 267 270 274 275 271 268 266
248 252 249 249 250 249 263 264 265 268 269 274 271 275 276 277 277 282 287 289 291 294 293 293 289 290 291 291 283 273 267 264 261 259 260 266 268 269 273 271 273 272 270 267
248 258 246 252 255 252 262 271 266 267 267 266 267 269 271 273 280 286 290 291 294 294 293 292 291 292 290 290 287 279 271 266 262 259 259 261 266 270 274 271 270 271 272 272
248 249 255 251 253 251 250 255 263 264 261 263 271 269 270 283 285 288 290 292 293 294 293 292 292 291 292 292 292 283 276 271 267 263 263 261 263 267 268 269 271 270 270 271
243 250 245 246 249 251 246 248 257 263 264 270 271 270 271 285 287 290 292 293 294 294 292 292 293 295 297 294 294 292 284 279 276 272 269 267 266 269 270 269 270 271 269 270
246 250 256 252 252 243 253 249 254 269 276 273 271 278 281 282 287 294 294 296 296 298 302 307 310 307 307 306 303 296 292 287 283 278 276 274 272 269 270 272 272 272 272 271
251 253 254 245 249 249 251 249 254 256 263 266 272 274 276 285 288 299 298 294 302 308 308 314 320 318 315 314 314 312 306 297 292 286 282 279 276 273 273 273 273 272 272 271
246 252 255 246 241 244 246 249 254 261 261 267 272 274 278 281 286 289 294 299 307 311 312 315 317 316 317 315 312 309 311 309 306 304 295 285 281 279 277 275 273 273 274 273
237 255 252 248 248 243 246 246 246 256 260 264 271 272 287 291 282 288 294 299 305 311 316 319 319 318 316 314 313 312 309 309 307 307 304 299 292 285 281 279 278 275 274 273
229 246 248 252 255 252 242 247 248 254 264 261 265 274 278 269 277 297 294 298 302 310 313 313 318 319 318 315 312 312 312 310 310 306 305 301 299 294 286 282 280 278 275 275
227 243 245 246 250 248 244 241 242 244 254 259 260 267 267 265 271 283 291 298 301 301 303 306 310 314 314 315 316 315 315 313 310 308 306 302 299 297 296 288 284 283 280 277
230 237 242 249 258 249 245 242 242 245 250 255 262 266 264 265 272 281 284 287 290 293 298 302 303 305 307 309 310 313 318 314 311 306 302 299 298 297 297 297 295 288 283 279
230 243 242 247 255 251 247 246 245 246 252 257 263 267 272 273 276 278 283 286 289 293 297 301 303 305 308 309 309 309 310 313 315 311 304 298 296 295 295 294 294 292 289 286
227 232 238 239 243 249 252 241 243 250 254 254 259 240 276 277 278 280 281 283 290 296 300 304 306 308 308 311 310 309 309 306 307 312 308 302 299 295 295 295 294 294 293 291
224 229 240 249 243 248 260 252 246 250 259 256 262 268 268 275 283 288 292 292 296 301 304 306 307 308 310 312 310 308 312 306 304 305 309 311 305 303 296 295 295 295 296 293
230 232 242 242 244 256 258 256 245 248 260 263 263 268 272 269 279 288 298 303 305 306 309 311 311 311 313 313 312 311 310 312 314 310 305 307 307 303 301 296 294 294 296 293
230 233 236 238 244 249 257 260 263 259 262 271 270 268 267 264 270 282 297 304 306 311 313 314 315 316 315 315 315 313 311 313 311 313 308 308 309 307 304 299 296 296 295 294
227 231 235 243 250 259 262 261 265 251 267 281 283 283 274 270 284 292 302 306 310 312 313 314 317 316 316 316 316 313 312 310 313 313 313 312 310 310 310 305 301 296 295 294
229 230 235 253 254 257 277 265 252 267 273 284 289 292 291 294 300 304 307 310 313 313 314 315 315 316 318 319 316 313 312 313 312 313 312 312 313 312 310 309 306 298 295 294
233 249 250 254 257 277 280 269 276 279 272 282 291 299 302 302 303 307 308 311 313 314 314 317 315 315 319 320 319 315 314 314 313 311 311 311 311 312 311 309 308 303 296 291
244 263 254 257 270 269 276 285 286 287 287 295 301 302 303 301 307 310 314 315 314 315 315 315 314 314 314 317 318 316 314 315 314 312 311 311 309 308 309 309 307 305 299 292
255 260 254 259 260 266 276 284 287 291 297 298 300 302 304 307 309 312 312 313 315 315 316 316 315 314 313 315 316 318 315 314 312 311 311 312 312 309 306 307 305 302 301 292
261 255 254 254 261 269 271 283 293 290 292 296 297 300 308 312 311 312 311 312 313 313 315 315 315 313 312 313 314 316 317 315 312 310 311 311 311 311 309 305 303 304 300 296